Flag for Denmark Weather past 2 weeks in Aalborg, Denmark

Now
41 °F

Drizzle. Partly sunny.


Feels Like: 32 °F
Forecast: 38 / 44 °F
Wind: 18 mph from South

Location: Aalborg Airport

Current Time: Mar 1, 2015 at 12:31:17 PM

Latest Report: Mar 1, 2015 at 11:50 AM


Visibility: 4 mi

Pressure: 29.18 "Hg

Humidity: 93%

Dew point: 39 °F

Location of AalborgLocation

Historic Weather in Aalborg — Graph

°F

Aalborg temperature yesterday

Maximum temperature yesterday: 46 °F (at 3:20 PM)
Minimum temperature yesterday: 32 °F (at 12:20 AM)
Average temperature yesterday: 40 °F

Past Weeks' High & Low Weather Summary

 TemperatureHumidityPressure
High46 °F (Feb 27, 1:20 PM)100% (Feb 18, 5:20 AM)30.42 "Hg (Feb 18, 5:20 AM)
Low32 °F (Feb 27, 11:20 PM)61% (Feb 22, 12:50 PM)29.06 "Hg (Feb 23, 8:50 AM)
Average39 °F88%29.81 "Hg
* Reported Feb 14 11:20 AM — Mar 1 11:20 AM, Aalborg, Weather by CustomWeather, © 2015

Note: Actual official high and low records may vary slightly from our data, if they occured in-between our weather recording intervals... More about our weather records

Advertising

Aalborg weather history for previous 24 hours

 ConditionsComfort  
Time TempWeatherWind HumidityBarometerVisibility
11:20 AM
Sun, Mar 1
41 °FDrizzle. More clouds than sun.21 mph93%29.18 "Hg5 mi
10:50 AM41 °FLight rain. More clouds than sun.20 mph93%29.18 "HgN/A
10:20 AM39 °FDrizzle. More clouds than sun.21 mph93%29.18 "Hg5 mi
10:01 AM39 °FDrizzle. More clouds than sun.21 mph93%29.18 "Hg4 mi
9:20 AM39 °FMore clouds than sun.21 mph87%29.18 "HgN/A
8:50 AM37 °FLight rain. Broken clouds.21 mph93%29.21 "HgN/A
8:20 AM37 °FLight rain. Broken clouds.22 mph93%29.21 "Hg3 mi
7:50 AM37 °FLight rain. Broken clouds.21 mph93%29.24 "Hg3 mi
7:20 AM37 °FRain. Broken clouds.22 mph93%29.24 "Hg4 mi
6:50 AM37 °FRain. Partly cloudy.21 mph93%29.27 "Hg5 mi
6:20 AM37 °FRain. Partly cloudy.20 mph93%29.30 "Hg5 mi
5:50 AM37 °FLight rain. Partly cloudy.22 mph93%29.33 "Hg4 mi
5:20 AM37 °FLight rain. Partly cloudy.21 mph93%29.33 "Hg4 mi
4:20 AM39 °FPassing clouds.21 mph81%29.39 "HgN/A
3:50 AM41 °FLight rain. Passing clouds.18 mph76%29.39 "HgN/A
3:20 AM41 °FPassing clouds.17 mph70%29.42 "HgN/A
2:50 AM41 °FPassing clouds.15 mph70%29.45 "HgN/A
2:20 AM41 °FPassing clouds.17 mph70%29.47 "HgN/A
1:50 AM41 °FPassing clouds.16 mph76%29.50 "HgN/A
1:20 AM41 °FPartly cloudy.16 mph76%29.50 "HgN/A
12:50 AM41 °FPassing clouds.20 mph76%29.53 "HgN/A
12:20 AM41 °FPassing clouds.21 mph76%29.56 "HgN/A
11:50 PM
Sat, Feb 28
41 °FPassing clouds.20 mph76%29.56 "HgN/A
11:20 PM41 °FPartly cloudy.21 mph76%29.59 "HgN/A
10:50 PM41 °FPassing clouds.20 mph76%29.62 "HgN/A
10:20 PM41 °FPassing clouds.18 mph76%29.65 "HgN/A
9:50 PM41 °FPassing clouds.20 mph76%29.65 "HgN/A
9:20 PM41 °FPassing clouds.20 mph76%29.65 "HgN/A
8:50 PM41 °FPassing clouds.21 mph76%29.68 "HgN/A
8:20 PM43 °FPartly cloudy.18 mph71%29.68 "HgN/A
7:50 PM43 °FPassing clouds.18 mph71%29.71 "HgN/A
7:20 PM43 °FPassing clouds.18 mph71%29.71 "HgN/A
6:50 PM43 °FOvercast.18 mph76%29.71 "HgN/A
6:20 PM43 °FOvercast.20 mph76%29.71 "HgN/A
5:50 PM43 °FOvercast.18 mph76%29.74 "HgN/A
5:20 PM43 °FOvercast.17 mph76%29.74 "HgN/A
4:50 PM45 °FOvercast.16 mph66%29.77 "HgN/A
4:20 PM45 °FOvercast.17 mph61%29.77 "HgN/A
3:50 PM45 °FPartly sunny.18 mph66%29.77 "HgN/A
3:20 PM46 °FPartly sunny.21 mph66%29.77 "HgN/A
2:50 PM45 °FPartly sunny.17 mph66%29.80 "HgN/A
2:20 PM45 °FBroken clouds.18 mph71%29.80 "HgN/A
1:50 PM45 °FPartly sunny.20 mph71%29.83 "HgN/A
1:20 PM45 °FPartly sunny.18 mph71%29.83 "HgN/A
12:50 PM45 °FPartly sunny.18 mph71%29.86 "HgN/A
12:20 PM43 °FPartly sunny.18 mph76%29.86 "HgN/A
Weather by CustomWeather, © 2015

See weather overviewHow to use our weather pages